BTY91CM GCRR-LEZL

Flight info

Callsign BTY91CM
Flight time 1h 42m
Altitude 38000
Route KORAL UG5 SONSO DCT NIRAL UN871 ADUBI DCT VJF
Aircraft B738/M-SDE2E3FGHIRWXY/LB1

Departure

Time 2026-04-23 18:54
Airport César Manrique-Lanzarote Airport (GCRR)

Arrival

Time 2026-04-23 20:37
Airport Seville Airport (LEZL)
Time Latitude Longitude Altitude Speed Heading
2026-04-23 18:09 28.95057 -13.60729 47 ft 0 kts 296°
2026-04-23 18:41 28.95057 -13.60728 22 ft 0 kts 296°
2026-04-23 18:42 28.95047 -13.60705 49 ft 4 kts 296°
2026-04-23 18:42 28.95035 -13.60677 45 ft 4 kts 295°
2026-04-23 18:42 28.95026 -13.60651 46 ft 3 kts 287°
2026-04-23 18:43 28.95023 -13.60637 44 ft 2 kts 255°
2026-04-23 18:43 28.95029 -13.60627 45 ft 2 kts 209°
2026-04-23 18:43 28.95033 -13.60624 46 ft 0 kts 209°
2026-04-23 18:44 28.95033 -13.60625 46 ft 0 kts 209°
2026-04-23 18:45 28.95023 -13.60630 44 ft 3 kts 206°
2026-04-23 18:45 28.94989 -13.60649 49 ft 8 kts 206°
2026-04-23 18:45 28.94926 -13.60670 49 ft 11 kts 167°
2026-04-23 18:45 28.94872 -13.60590 49 ft 15 kts 129°
2026-04-23 18:46 28.94770 -13.60602 49 ft 17 kts 205°
2026-04-23 18:46 28.94652 -13.60668 46 ft 22 kts 207°
2026-04-23 18:46 28.94495 -13.60760 35 ft 29 kts 207°
2026-04-23 18:46 28.94302 -13.60875 28 ft 33 kts 207°
2026-04-23 18:47 28.94092 -13.60993 28 ft 35 kts 207°
2026-04-23 18:47 28.93870 -13.61122 24 ft 36 kts 207°
2026-04-23 18:47 28.93703 -13.61214 23 ft 13 kts 201°
2026-04-23 18:47 28.93670 -13.61216 23 ft 0 kts 162°
2026-04-23 18:52 28.93665 -13.61213 23 ft 2 kts 150°
2026-04-23 18:52 28.93643 -13.61188 23 ft 7 kts 127°
2026-04-23 18:53 28.93614 -13.61125 23 ft 11 kts 114°
2026-04-23 18:53 28.93640 -13.61045 26 ft 0 kts 24°
2026-04-23 18:54 28.93706 -13.61009 27 ft 40 kts 26°
2026-04-23 18:54 28.94173 -13.60742 29 ft 108 kts 27°
2026-04-23 18:54 28.95017 -13.60260 114 ft 153 kts 22°
2026-04-23 18:54 28.95900 -13.59729 991 ft 144 kts 25°
2026-04-23 18:55 28.96873 -13.59111 1323 ft 175 kts 35°
2026-04-23 18:55 28.97881 -13.58193 1838 ft 194 kts 34°
2026-04-23 18:55 28.98954 -13.57223 2435 ft 199 kts 34°
2026-04-23 18:55 29.00074 -13.56253 2993 ft 205 kts 33°
2026-04-23 18:56 29.00810 -13.55553 3333 ft 212 kts 42°
2026-04-23 18:56 29.02072 -13.53739 3913 ft 234 kts 48°
2026-04-23 18:56 29.03116 -13.52234 4357 ft 251 kts 47°
2026-04-23 18:56 29.04258 -13.50608 4842 ft 269 kts 47°
2026-04-23 18:57 29.05452 -13.48918 5590 ft 275 kts 48°
2026-04-23 18:57 29.06655 -13.47220 6444 ft 276 kts 47°
2026-04-23 18:57 29.07884 -13.45498 7168 ft 283 kts 47°
2026-04-23 18:57 29.09149 -13.43738 7859 ft 290 kts 45°
2026-04-23 18:58 29.10744 -13.42378 8586 ft 287 kts 22°
2026-04-23 18:58 29.12572 -13.41416 9340 ft 292 kts 20°
2026-04-23 18:58 29.14417 -13.40456 10058 ft 298 kts 20°
2026-04-23 18:58 29.16338 -13.39450 10539 ft 313 kts 21°
2026-04-23 18:59 29.18389 -13.38366 10791 ft 334 kts 21°
2026-04-23 18:59 29.20528 -13.37222 11342 ft 343 kts 21°
2026-04-23 18:59 29.22709 -13.36049 11929 ft 349 kts 21°
2026-04-23 18:59 29.24910 -13.34863 12050 ft 350 kts 21°
2026-04-23 19:00 29.27050 -13.33518 12058 ft 355 kts 36°
2026-04-23 19:00 29.28703 -13.31405 12099 ft 359 kts 52°
2026-04-23 19:00 29.30124 -13.29045 12087 ft 361 kts 53°
2026-04-23 19:00 29.31513 -13.26689 12087 ft 362 kts 53°
2026-04-23 19:01 29.32934 -13.24307 12073 ft 362 kts 53°
2026-04-23 19:01 29.34368 -13.21936 12071 ft 362 kts 53°
2026-04-23 19:01 29.35807 -13.19574 12077 ft 361 kts 53°
2026-04-23 19:01 29.37245 -13.17214 12074 ft 361 kts 53°
2026-04-23 19:02 29.38680 -13.14860 12072 ft 360 kts 53°
2026-04-23 19:02 29.40110 -13.12511 12071 ft 359 kts 53°
2026-04-23 19:02 29.41541 -13.10159 12070 ft 359 kts 53°
2026-04-23 19:02 29.42948 -13.07843 12079 ft 359 kts 53°
2026-04-23 19:03 29.44376 -13.05493 12074 ft 359 kts 53°
2026-04-23 19:03 29.45803 -13.03143 12084 ft 359 kts 53°
2026-04-23 19:03 29.47229 -13.00793 12092 ft 359 kts 53°
2026-04-23 19:03 29.48670 -12.98415 12410 ft 367 kts 53°
2026-04-23 19:04 29.50128 -12.96005 13157 ft 368 kts 53°
2026-04-23 19:04 29.51593 -12.93579 13911 ft 371 kts 53°
2026-04-23 19:04 29.53073 -12.91127 14509 ft 376 kts 53°
2026-04-23 19:04 29.54552 -12.88677 15124 ft 381 kts 53°
2026-04-23 19:05 29.56068 -12.86162 15755 ft 385 kts 53°
2026-04-23 19:05 29.57598 -12.83623 16384 ft 389 kts 53°
2026-04-23 19:05 29.59146 -12.81052 16998 ft 393 kts 53°
2026-04-23 19:05 29.60709 -12.78455 17607 ft 398 kts 53°
2026-04-23 19:06 29.62292 -12.75822 18176 ft 403 kts 53°
2026-04-23 19:06 29.63898 -12.73150 18667 ft 409 kts 53°
2026-04-23 19:06 29.65524 -12.70443 19201 ft 413 kts 53°
2026-04-23 19:06 29.67158 -12.67720 19762 ft 415 kts 52°
2026-04-23 19:07 29.68782 -12.65012 20291 ft 419 kts 52°
2026-04-23 19:07 29.70442 -12.62243 20810 ft 422 kts 52°
2026-04-23 19:07 29.72116 -12.59450 21322 ft 426 kts 51°
2026-04-23 19:07 29.73805 -12.56627 21836 ft 430 kts 51°
2026-04-23 19:08 29.75500 -12.53780 22328 ft 433 kts 51°
2026-04-23 19:08 29.77206 -12.50903 22819 ft 437 kts 51°
2026-04-23 19:08 29.78923 -12.48003 23302 ft 441 kts 50°
2026-04-23 19:08 29.80656 -12.45074 23755 ft 444 kts 50°
2026-04-23 19:09 29.82378 -12.42163 24182 ft 447 kts 50°
2026-04-23 19:09 29.84133 -12.39193 24582 ft 450 kts 50°
2026-04-23 19:09 29.85901 -12.36198 24961 ft 454 kts 50°
2026-04-23 19:09 29.87680 -12.33185 25334 ft 457 kts 50°
2026-04-23 19:10 29.89473 -12.30145 25709 ft 460 kts 50°
2026-04-23 19:10 29.91280 -12.27080 26074 ft 463 kts 50°
2026-04-23 19:10 29.93095 -12.23997 26430 ft 467 kts 50°
2026-04-23 19:10 29.94922 -12.20893 26792 ft 470 kts 50°
2026-04-23 19:11 29.96736 -12.17806 27129 ft 473 kts 50°
2026-04-23 19:11 29.98586 -12.14658 27472 ft 476 kts 50°
2026-04-23 19:11 30.00454 -12.11492 27810 ft 478 kts 49°
2026-04-23 19:11 30.02534 -12.08526 28120 ft 473 kts 39°
2026-04-23 19:12 30.04872 -12.05862 28470 ft 473 kts 37°
2026-04-23 19:12 30.07261 -12.03237 28790 ft 475 kts 36°
2026-04-23 19:12 30.09675 -12.00609 29056 ft 479 kts 36°
2026-04-23 19:12 30.12108 -11.97952 29351 ft 482 kts 36°
2026-04-23 19:13 30.14541 -11.95272 29685 ft 485 kts 36°
2026-04-23 19:13 30.16945 -11.92603 29992 ft 487 kts 37°
2026-04-23 19:13 30.19390 -11.89872 30259 ft 490 kts 37°
2026-04-23 19:13 30.21844 -11.87120 30520 ft 492 kts 37°
2026-04-23 19:14 30.24302 -11.84357 30801 ft 493 kts 37°
2026-04-23 19:14 30.26766 -11.81583 31071 ft 495 kts 37°
2026-04-23 19:14 30.29235 -11.78802 31325 ft 496 kts 37°
2026-04-23 19:14 30.31713 -11.76010 31566 ft 498 kts 37°
2026-04-23 19:15 30.34168 -11.73243 31792 ft 500 kts 37°
2026-04-23 19:15 30.36657 -11.70437 32050 ft 501 kts 37°
2026-04-23 19:15 30.39150 -11.67622 32384 ft 499 kts 37°
2026-04-23 19:15 30.41630 -11.64819 32759 ft 497 kts 37°
2026-04-23 19:16 30.44101 -11.62025 33157 ft 496 kts 37°
2026-04-23 19:16 30.46570 -11.59232 33394 ft 497 kts 37°
2026-04-23 19:16 30.49049 -11.56429 33630 ft 498 kts 37°
2026-04-23 19:17 30.53990 -11.50831 34276 ft 495 kts 37°
2026-04-23 19:17 30.56414 -11.48081 34523 ft 494 kts 37°
2026-04-23 19:17 30.58875 -11.45288 34702 ft 495 kts 37°
2026-04-23 19:17 30.61340 -11.42490 34906 ft 496 kts 37°
2026-04-23 19:18 30.63804 -11.39690 35155 ft 495 kts 37°
2026-04-23 19:18 30.66263 -11.36893 35391 ft 495 kts 37°
2026-04-23 19:18 30.68718 -11.34097 35601 ft 495 kts 37°
2026-04-23 19:18 30.71179 -11.31295 35789 ft 495 kts 37°
2026-04-23 19:19 30.76105 -11.25679 36183 ft 497 kts 37°
2026-04-23 19:19 30.78533 -11.22906 36367 ft 497 kts 37°
2026-04-23 19:20 30.83452 -11.17281 36795 ft 496 kts 37°
2026-04-23 19:20 30.85914 -11.14463 36990 ft 496 kts 37°
2026-04-23 19:20 30.88369 -11.11651 37180 ft 495 kts 37°
2026-04-23 19:20 30.90823 -11.08838 37407 ft 494 kts 37°
2026-04-23 19:21 30.93268 -11.06032 37628 ft 493 kts 37°
2026-04-23 19:21 30.98122 -11.00460 37950 ft 493 kts 38°
2026-04-23 19:21 31.00567 -10.97650 38063 ft 494 kts 38°
2026-04-23 19:22 31.03022 -10.94828 38057 ft 497 kts 38°
2026-04-23 19:22 31.10375 -10.86353 38064 ft 494 kts 38°
2026-04-23 19:23 31.15247 -10.80726 38065 ft 492 kts 38°
2026-04-23 19:24 31.22482 -10.72356 38063 ft 489 kts 38°
2026-04-23 19:24 31.29719 -10.63968 38067 ft 488 kts 38°
2026-04-23 19:25 31.39359 -10.52766 38070 ft 490 kts 39°
2026-04-23 19:26 31.46584 -10.44344 38067 ft 492 kts 39°
2026-04-23 19:27 31.58721 -10.30154 38068 ft 494 kts 39°
2026-04-23 19:28 31.68424 -10.18770 38077 ft 496 kts 40°
2026-04-23 19:29 31.75733 -10.10170 38064 ft 496 kts 40°
2026-04-23 19:30 31.83027 -10.01567 38062 ft 495 kts 40°
2026-04-23 19:31 31.90264 -9.93012 38062 ft 493 kts 40°
2026-04-23 19:31 31.95097 -9.87288 38061 ft 493 kts 40°
2026-04-23 19:32 31.99923 -9.81563 38047 ft 493 kts 41°
2026-04-23 19:32 32.04710 -9.75876 38063 ft 492 kts 41°
2026-04-23 19:33 32.09519 -9.70152 38066 ft 491 kts 41°
2026-04-23 19:33 32.16720 -9.61566 38059 ft 490 kts 41°
2026-04-23 19:34 32.21514 -9.55838 38061 ft 490 kts 41°
2026-04-23 19:35 32.28673 -9.47269 38068 ft 491 kts 41°
2026-04-23 19:35 32.33469 -9.41516 38062 ft 491 kts 42°
2026-04-23 19:36 32.38267 -9.35750 38062 ft 492 kts 42°
2026-04-23 19:36 32.43066 -9.29975 38061 ft 493 kts 42°
2026-04-23 19:37 32.47838 -9.24223 38060 ft 493 kts 42°
2026-04-23 19:37 32.52649 -9.18415 38061 ft 494 kts 42°
2026-04-23 19:38 32.57460 -9.12597 38072 ft 495 kts 43°
2026-04-23 19:38 32.62287 -9.06750 38048 ft 496 kts 43°
2026-04-23 19:39 32.67107 -9.00902 38064 ft 496 kts 43°
2026-04-23 19:39 32.71890 -8.95089 38053 ft 495 kts 43°
2026-04-23 19:40 32.76695 -8.89240 38061 ft 494 kts 43°
2026-04-23 19:40 32.81491 -8.83393 38060 ft 493 kts 43°
2026-04-23 19:41 32.86273 -8.77552 38078 ft 492 kts 44°
2026-04-23 19:41 32.91015 -8.71752 38045 ft 492 kts 44°
2026-04-23 19:42 32.95775 -8.65919 38059 ft 491 kts 44°
2026-04-23 19:42 33.00524 -8.60091 38058 ft 490 kts 44°
2026-04-23 19:43 33.05261 -8.54268 38058 ft 489 kts 44°
2026-04-23 19:43 33.09958 -8.48483 38049 ft 488 kts 44°
2026-04-23 19:44 33.14677 -8.42661 38062 ft 488 kts 44°
2026-04-23 19:44 33.19455 -8.36907 38042 ft 487 kts 38°
2026-04-23 19:45 33.24996 -8.32353 38048 ft 483 kts 28°
2026-04-23 19:45 33.30726 -8.28158 38068 ft 483 kts 28°
2026-04-23 19:46 33.36419 -8.23951 38060 ft 485 kts 28°
2026-04-23 19:46 33.42148 -8.19648 38082 ft 487 kts 29°
2026-04-23 19:47 33.46914 -8.16042 38064 ft 488 kts 29°
2026-04-23 19:47 33.53595 -8.10975 38064 ft 489 kts 29°
2026-04-23 19:48 33.59349 -8.06605 38059 ft 490 kts 29°
2026-04-23 19:48 33.65106 -8.02228 38048 ft 490 kts 29°
2026-04-23 19:49 33.70864 -7.97844 38066 ft 490 kts 30°
2026-04-23 19:49 33.76616 -7.93458 38059 ft 489 kts 30°
2026-04-23 19:50 33.82321 -7.89100 38055 ft 489 kts 30°
2026-04-23 19:50 33.88048 -7.84718 38059 ft 487 kts 30°
2026-04-23 19:51 33.93762 -7.80340 38058 ft 486 kts 30°
2026-04-23 19:51 33.99462 -7.75964 38080 ft 486 kts 31°
2026-04-23 19:52 34.05155 -7.71588 38068 ft 485 kts 31°
2026-04-23 19:52 34.10801 -7.67241 38070 ft 484 kts 31°
2026-04-23 19:53 34.16475 -7.62865 38070 ft 484 kts 31°
2026-04-23 19:53 34.22138 -7.58490 38054 ft 483 kts 31°
2026-04-23 19:54 34.27794 -7.54113 38083 ft 483 kts 31°
2026-04-23 19:54 34.33407 -7.49763 38069 ft 483 kts 31°
2026-04-23 19:55 34.39057 -7.45378 38071 ft 482 kts 31°
2026-04-23 19:55 34.44703 -7.40987 38071 ft 482 kts 31°
2026-04-23 19:56 34.50306 -7.36624 38072 ft 482 kts 31°
2026-04-23 19:56 34.55943 -7.32227 38077 ft 482 kts 32°
2026-04-23 19:57 34.61582 -7.27821 38072 ft 482 kts 32°
2026-04-23 19:57 34.67220 -7.23409 38074 ft 482 kts 32°
2026-04-23 19:58 34.72848 -7.18996 38068 ft 481 kts 32°
2026-04-23 19:58 34.78434 -7.14611 38094 ft 481 kts 32°
2026-04-23 19:59 34.84059 -7.10187 38074 ft 481 kts 32°
2026-04-23 19:59 34.89682 -7.05757 38073 ft 481 kts 32°
2026-04-23 20:00 34.95296 -7.01327 38071 ft 481 kts 32°
2026-04-23 20:00 35.00870 -6.96921 38072 ft 480 kts 32°
2026-04-23 20:01 35.06477 -6.92482 38083 ft 480 kts 32°
2026-04-23 20:01 35.12083 -6.88036 38068 ft 480 kts 32°
2026-04-23 20:02 35.17685 -6.83586 38047 ft 480 kts 32°
2026-04-23 20:02 35.23276 -6.79136 38058 ft 479 kts 32°
2026-04-23 20:03 35.28817 -6.74720 38064 ft 478 kts 32°
2026-04-23 20:03 35.34386 -6.70274 38075 ft 477 kts 33°
2026-04-23 20:04 35.39981 -6.65913 38057 ft 477 kts 32°
2026-04-23 20:04 35.42811 -6.63748 37596 ft 483 kts 31°
2026-04-23 20:04 35.45644 -6.61582 37261 ft 476 kts 32°
2026-04-23 20:04 35.48444 -6.59435 36835 ft 473 kts 32°
2026-04-23 20:05 35.51219 -6.57300 36450 ft 468 kts 32°
2026-04-23 20:05 35.53930 -6.55209 36072 ft 465 kts 32°
2026-04-23 20:05 35.56653 -6.53103 35679 ft 461 kts 32°
2026-04-23 20:05 35.59358 -6.51009 35300 ft 458 kts 33°
2026-04-23 20:06 35.62046 -6.48927 34912 ft 455 kts 33°
2026-04-23 20:06 35.64715 -6.46857 34524 ft 453 kts 33°
2026-04-23 20:06 35.67370 -6.44797 34120 ft 450 kts 33°
2026-04-23 20:06 35.70008 -6.42749 33698 ft 447 kts 33°
2026-04-23 20:07 35.72597 -6.40737 33293 ft 444 kts 33°
2026-04-23 20:07 35.75197 -6.38715 32903 ft 441 kts 33°
2026-04-23 20:07 35.77783 -6.36702 32525 ft 438 kts 33°
2026-04-23 20:07 35.80347 -6.34705 32153 ft 435 kts 33°
2026-04-23 20:08 35.82894 -6.32720 31786 ft 431 kts 33°
2026-04-23 20:08 35.85400 -6.30710 31420 ft 428 kts 35°
2026-04-23 20:08 35.87845 -6.28639 31063 ft 425 kts 36°
2026-04-23 20:08 35.90259 -6.26552 30713 ft 422 kts 37°
2026-04-23 20:09 35.92622 -6.24502 30365 ft 420 kts 37°
2026-04-23 20:09 35.95008 -6.22438 29993 ft 418 kts 36°
2026-04-23 20:09 35.97383 -6.20393 29580 ft 415 kts 36°
2026-04-23 20:09 35.99740 -6.18369 29208 ft 411 kts 36°
2026-04-23 20:10 36.01292 -6.17038 28946 ft 409 kts 36°
2026-04-23 20:10 36.04398 -6.14376 28476 ft 404 kts 36°
2026-04-23 20:10 36.06696 -6.12405 28097 ft 401 kts 36°
2026-04-23 20:10 36.08977 -6.10448 27744 ft 398 kts 36°
2026-04-23 20:11 36.11212 -6.08528 27367 ft 395 kts 36°
2026-04-23 20:11 36.13454 -6.06601 27045 ft 391 kts 36°
2026-04-23 20:11 36.15679 -6.04686 26689 ft 388 kts 36°
2026-04-23 20:11 36.17892 -6.02782 26343 ft 386 kts 36°
2026-04-23 20:12 36.20088 -6.00890 26004 ft 384 kts 36°
2026-04-23 20:12 36.22275 -5.99005 25657 ft 382 kts 36°
2026-04-23 20:12 36.24521 -5.97281 25293 ft 380 kts 21°
2026-04-23 20:12 36.27023 -5.96274 24993 ft 376 kts 15°
2026-04-23 20:13 36.29501 -5.95376 24648 ft 375 kts 15°
2026-04-23 20:13 36.32005 -5.94471 24309 ft 374 kts 15°
2026-04-23 20:13 36.34494 -5.93562 23978 ft 373 kts 16°
2026-04-23 20:13 36.36978 -5.92644 23629 ft 372 kts 16°
2026-04-23 20:14 36.39455 -5.91720 23227 ft 371 kts 16°
2026-04-23 20:14 36.41917 -5.90794 22864 ft 369 kts 16°
2026-04-23 20:14 36.44366 -5.89871 22524 ft 366 kts 16°
2026-04-23 20:14 36.46796 -5.88951 22180 ft 364 kts 16°
2026-04-23 20:15 36.49211 -5.88036 21852 ft 362 kts 16°
2026-04-23 20:15 36.51578 -5.87138 21522 ft 360 kts 16°
2026-04-23 20:15 36.53964 -5.86232 21194 ft 357 kts 16°
2026-04-23 20:15 36.56337 -5.85331 20872 ft 355 kts 16°
2026-04-23 20:16 36.58695 -5.84434 20552 ft 354 kts 17°
2026-04-23 20:16 36.61041 -5.83542 20231 ft 352 kts 17°
2026-04-23 20:16 36.63379 -5.82652 19906 ft 350 kts 17°
2026-04-23 20:16 36.65700 -5.81768 19594 ft 349 kts 17°
2026-04-23 20:17 36.68016 -5.80886 19277 ft 347 kts 17°
2026-04-23 20:17 36.70295 -5.80017 18965 ft 346 kts 17°
2026-04-23 20:17 36.72593 -5.79140 18651 ft 345 kts 17°
2026-04-23 20:17 36.74888 -5.78264 18327 ft 344 kts 17°
2026-04-23 20:18 36.77176 -5.77390 17959 ft 344 kts 17°
2026-04-23 20:18 36.79455 -5.76518 17621 ft 342 kts 17°
2026-04-23 20:18 36.81725 -5.75650 17290 ft 340 kts 17°
2026-04-23 20:18 36.83984 -5.74786 16965 ft 338 kts 17°
2026-04-23 20:19 36.86230 -5.73925 16660 ft 337 kts 17°
2026-04-23 20:19 36.88458 -5.73071 16340 ft 335 kts 17°
2026-04-23 20:19 36.90652 -5.72230 16035 ft 333 kts 17°
2026-04-23 20:19 36.92855 -5.71385 15723 ft 331 kts 17°
2026-04-23 20:20 36.95056 -5.70540 15406 ft 330 kts 18°
2026-04-23 20:20 36.97241 -5.69700 15105 ft 328 kts 18°
2026-04-23 20:20 36.99416 -5.68864 14804 ft 326 kts 18°
2026-04-23 20:20 37.01570 -5.68036 14530 ft 320 kts 18°
2026-04-23 20:21 37.03686 -5.67222 14100 ft 317 kts 18°
2026-04-23 20:21 37.05796 -5.66409 13604 ft 317 kts 18°
2026-04-23 20:21 37.07869 -5.65610 13127 ft 314 kts 18°
2026-04-23 20:21 37.09948 -5.64808 12672 ft 311 kts 18°
2026-04-23 20:22 37.12006 -5.64014 12269 ft 307 kts 18°
2026-04-23 20:22 37.13994 -5.63248 12145 ft 292 kts 18°
2026-04-23 20:22 37.15906 -5.62510 11854 ft 285 kts 18°
2026-04-23 20:22 37.17780 -5.61769 11534 ft 279 kts 23°
2026-04-23 20:23 37.19353 -5.60466 11190 ft 268 kts 53°
2026-04-23 20:23 37.20227 -5.58469 10801 ft 259 kts 79°
2026-04-23 20:23 37.20342 -5.56249 10338 ft 255 kts 103°
2026-04-23 20:23 37.19735 -5.54191 9843 ft 252 kts 126°
2026-04-23 20:24 37.18546 -5.52648 9326 ft 251 kts 149°
2026-04-23 20:24 37.16945 -5.51820 8807 ft 251 kts 169°
2026-04-23 20:24 37.15200 -5.51779 8278 ft 254 kts 189°
2026-04-23 20:24 37.13487 -5.52345 7783 ft 256 kts 195°
2026-04-23 20:25 37.11781 -5.53023 7283 ft 258 kts 195°
2026-04-23 20:25 37.10094 -5.53692 7207 ft 249 kts 196°
2026-04-23 20:25 37.08472 -5.54326 7128 ft 240 kts 196°
2026-04-23 20:25 37.06922 -5.55006 6964 ft 235 kts 207°
2026-04-23 20:26 37.05744 -5.56387 6733 ft 242 kts 237°
2026-04-23 20:26 37.05190 -5.58439 6536 ft 262 kts 263°
2026-04-23 20:26 37.05450 -5.60737 6304 ft 275 kts 292°
2026-04-23 20:26 37.06574 -5.62685 6065 ft 282 kts 321°
2026-04-23 20:27 37.08329 -5.63718 5818 ft 280 kts 352°
2026-04-23 20:27 37.10247 -5.63694 5581 ft 274 kts
2026-04-23 20:27 37.12126 -5.63403 5329 ft 271 kts
2026-04-23 20:27 37.13992 -5.63095 5077 ft 269 kts
2026-04-23 20:28 37.15839 -5.62802 4829 ft 266 kts
2026-04-23 20:28 37.17672 -5.62524 4575 ft 265 kts
2026-04-23 20:28 37.19496 -5.62258 4310 ft 263 kts
2026-04-23 20:28 37.21286 -5.62006 4060 ft 262 kts
2026-04-23 20:29 37.23096 -5.61753 3804 ft 262 kts
2026-04-23 20:29 37.24914 -5.61501 3558 ft 263 kts
2026-04-23 20:29 37.26733 -5.61252 3330 ft 263 kts
2026-04-23 20:29 37.28555 -5.61097 3078 ft 263 kts
2026-04-23 20:30 37.30381 -5.60983 2818 ft 263 kts
2026-04-23 20:30 37.33942 -5.60752 2509 ft 245 kts
2026-04-23 20:30 37.35596 -5.60640 2424 ft 232 kts
2026-04-23 20:31 37.37142 -5.60534 2323 ft 220 kts
2026-04-23 20:31 37.38625 -5.60432 2232 ft 207 kts
2026-04-23 20:31 37.40058 -5.60399 2087 ft 207 kts 348°
2026-04-23 20:31 37.41258 -5.61208 2018 ft 189 kts 304°
2026-04-23 20:32 37.41788 -5.62615 1994 ft 172 kts 280°
2026-04-23 20:32 37.41887 -5.64063 2005 ft 164 kts 267°
2026-04-23 20:32 37.41879 -5.65512 2007 ft 166 kts 267°
2026-04-23 20:32 37.41866 -5.66969 1992 ft 166 kts 266°
2026-04-23 20:33 37.41855 -5.68398 1979 ft 166 kts 267°
2026-04-23 20:33 37.41846 -5.69846 1999 ft 167 kts 266°
2026-04-23 20:33 37.41838 -5.71316 2009 ft 169 kts 266°
2026-04-23 20:33 37.41831 -5.72793 1986 ft 167 kts 267°
2026-04-23 20:34 37.41850 -5.74239 1992 ft 165 kts 266°
2026-04-23 20:34 37.41855 -5.75668 1914 ft 162 kts 266°
2026-04-23 20:34 37.41850 -5.77064 1752 ft 159 kts 267°
2026-04-23 20:34 37.41844 -5.78405 1542 ft 147 kts 267°
2026-04-23 20:35 37.41839 -5.79639 1376 ft 136 kts 265°
2026-04-23 20:35 37.41831 -5.80854 1182 ft 139 kts 267°
2026-04-23 20:35 37.41826 -5.82055 984 ft 139 kts 266°
2026-04-23 20:35 37.41820 -5.83264 807 ft 135 kts 268°
2026-04-23 20:36 37.41809 -5.84437 561 ft 137 kts 266°
2026-04-23 20:36 37.41803 -5.85646 351 ft 136 kts 268°
2026-04-23 20:36 37.41802 -5.86853 210 ft 138 kts 265°
2026-04-23 20:36 37.41789 -5.88037 113 ft 129 kts 266°
2026-04-23 20:37 37.41795 -5.89022 102 ft 92 kts 270°
2026-04-23 20:37 37.41791 -5.89623 97 ft 41 kts 274°
2026-04-23 20:37 37.41893 -5.89830 96 ft 26 kts 332°
2026-04-23 20:37 37.42019 -5.89898 95 ft 15 kts 337°
2026-04-23 20:38 37.42115 -5.89926 93 ft 14 kts 13°
2026-04-23 20:38 37.42192 -5.89920 93 ft 9 kts 322°
2026-04-23 20:38 37.42211 -5.89943 93 ft 0 kts 313°
2026-04-23 20:39 37.42215 -5.89948 95 ft 0 kts 314°